TimeEDT,TemperatureF,Dew PointF,Humidity,Sea Level PressureIn,VisibilityMPH,Wind Direction,Wind SpeedMPH,Gust SpeedMPH,PrecipitationIn,Events,Conditions,WindDirDegrees,DateUTC
12:53 AM,79.0,66.9,66,30.07,10.0,East,10.4,-,N/A,,Clear,80,2013-04-10 04:53:00
1:53 AM,79.0,68.0,69,30.05,10.0,East,10.4,17.3,N/A,,Partly Cloudy,80,2013-04-10 05:53:00
2:53 AM,79.0,69.1,72,30.04,10.0,East,10.4,19.6,N/A,,Partly Cloudy,80,2013-04-10 06:53:00
3:53 AM,79.0,69.1,72,30.02,10.0,East,9.2,-,N/A,,Scattered Clouds,90,2013-04-10 07:53:00
4:53 AM,78.1,69.1,74,30.01,10.0,East,9.2,-,N/A,,Scattered Clouds,80,2013-04-10 08:53:00
5:53 AM,78.1,69.1,74,30.01,10.0,East,8.1,-,N/A,,Clear,100,2013-04-10 09:53:00
6:53 AM,78.1,70.0,76,30.02,10.0,East,8.1,-,N/A,,Clear,90,2013-04-10 10:53:00
7:53 AM,80.1,70.0,71,30.02,10.0,East,8.1,-,N/A,,Mostly Cloudy,100,2013-04-10 11:53:00
8:00 AM,80.6,69.8,70,30.02,10.0,ESE,6.9,-,N/A,,Scattered Clouds,110,2013-04-10 12:00:00
8:53 AM,82.0,70.0,67,30.03,10.0,East,6.9,-,N/A,,Mostly Cloudy,100,2013-04-10 12:53:00
9:53 AM,82.9,70.0,65,30.04,10.0,ESE,9.2,17.3,N/A,,Clear,110,2013-04-10 13:53:00
10:53 AM,84.9,71.1,63,30.05,10.0,ESE,9.2,17.3,N/A,,Scattered Clouds,110,2013-04-10 14:53:00
11:53 AM,84.9,71.1,63,30.05,10.0,ESE,10.4,18.4,N/A,,Partly Cloudy,120,2013-04-10 15:53:00
1:53 PM,86.0,71.1,61,30.03,10.0,ESE,9.2,16.1,N/A,,Scattered Clouds,110,2013-04-10 17:53:00
2:53 PM,84.9,71.1,63,30.02,10.0,ESE,9.2,17.3,N/A,,Clear,110,2013-04-10 18:53:00
3:53 PM,86.0,71.1,61,30.00,10.0,ESE,9.2,16.1,N/A,,Clear,120,2013-04-10 19:53:00
4:53 PM,84.9,71.1,63,29.98,10.0,ESE,8.1,17.3,N/A,,Clear,110,2013-04-10 20:53:00
5:53 PM,84.0,71.1,65,29.96,10.0,East,11.5,18.4,N/A,,Partly Cloudy,100,2013-04-10 21:53:00
6:53 PM,82.9,70.0,65,29.97,10.0,East,9.2,-,N/A,,Clear,90,2013-04-10 22:53:00
7:53 PM,81.0,70.0,69,29.97,10.0,East,11.5,-,N/A,,Clear,90,2013-04-10 23:53:00
8:53 PM,81.0,70.0,69,29.98,10.0,East,10.4,17.3,N/A,,Clear,100,2013-04-11 00:53:00
9:53 PM,81.0,70.0,69,29.99,10.0,East,9.2,18.4,N/A,,Clear,100,2013-04-11 01:53:00
10:53 PM,81.0,71.1,72,30.00,10.0,ESE,12.7,19.6,N/A,,Partly Cloudy,120,2013-04-11 02:53:00
11:53 PM,81.0,71.1,72,30.00,10.0,ESE,11.5,18.4,N/A,,Partly Cloudy,110,2013-04-11 03:53:00